Time,TemperatureF,DewpointF,PressureIn,WindDirection,WindDirectionDegrees,WindSpeedMPH,WindSpeedGustMPH,Humidity,HourlyPrecipIn,Conditions,Clouds,dailyrainin,SolarRadiationWatts/m^2,SoftwareType,DateUTC
2013-03-20 00:02:00,53.0,32.0,-100.00,ENE,77,5.0,9.0,44,0.00,,,0.00,0.000000,,2013-03-20 05:02:00,
2013-03-20 00:33:00,53.0,32.0,-100.00,ENE,77,5.0,9.0,44,0.00,,,0.00,0.000000,,2013-03-20 05:33:00,
2013-03-20 00:43:00,53.0,32.0,-100.00,ENE,77,5.0,9.0,44,0.00,,,0.00,0.000000,,2013-03-20 05:43:00,
2013-03-20 00:53:00,53.0,32.0,-100.00,ENE,77,5.0,9.0,44,0.00,,,0.00,0.000000,,2013-03-20 05:53:00,
2013-03-20 01:02:00,51.0,27.0,-100.00,ENE,66,5.0,9.0,39,0.00,,,0.00,0.000000,,2013-03-20 06:02:00,
2013-03-20 01:32:00,51.0,27.0,-100.00,ENE,66,5.0,9.0,39,0.00,,,0.00,0.000000,,2013-03-20 06:32:00,
2013-03-20 01:43:00,51.0,27.0,-100.00,ENE,66,5.0,9.0,39,0.00,,,0.00,0.000000,,2013-03-20 06:43:00,
2013-03-20 01:53:00,51.0,27.0,-100.00,ENE,66,5.0,9.0,39,0.00,,,0.00,0.000000,,2013-03-20 06:53:00,
2013-03-20 02:02:00,46.0,31.0,-100.00,NNE,25,1.0,5.0,55,0.00,,,0.00,0.000000,,2013-03-20 07:02:00,
2013-03-20 02:22:00,46.0,31.0,-100.00,NNE,25,1.0,5.0,55,0.00,,,0.00,0.000000,,2013-03-20 07:22:00,
2013-03-20 02:32:00,46.0,31.0,-100.00,NNE,25,1.0,5.0,55,0.00,,,0.00,0.000000,,2013-03-20 07:32:00,
2013-03-20 02:42:00,46.0,31.0,-100.00,NNE,25,1.0,5.0,55,0.00,,,0.00,0.000000,,2013-03-20 07:42:00,
2013-03-20 02:52:00,46.0,31.0,-100.00,NNE,25,1.0,5.0,55,0.00,,,0.00,0.000000,,2013-03-20 07:52:00,
2013-03-20 03:02:00,41.0,33.0,-100.00,ESE,109,1.0,2.0,72,0.00,,,0.00,0.000000,,2013-03-20 08:02:00,
2013-03-20 03:32:00,41.0,33.0,-100.00,ESE,109,1.0,2.0,72,0.00,,,0.00,0.000000,,2013-03-20 08:32:00,
2013-03-20 03:42:00,41.0,33.0,-100.00,ESE,109,1.0,2.0,72,0.00,,,0.00,0.000000,,2013-03-20 08:42:00,
2013-03-20 03:52:00,41.0,33.0,-100.00,ESE,109,1.0,2.0,72,0.00,,,0.00,0.000000,,2013-03-20 08:52:00,
2013-03-20 04:02:00,40.0,28.0,-100.00,ENE,67,3.0,4.0,63,0.00,,,0.00,0.000000,,2013-03-20 09:02:00,
2013-03-20 04:33:00,40.0,28.0,-100.00,ENE,67,3.0,4.0,63,0.00,,,0.00,0.000000,,2013-03-20 09:33:00,
2013-03-20 04:43:00,40.0,28.0,-100.00,ENE,67,3.0,4.0,63,0.00,,,0.00,0.000000,,2013-03-20 09:43:00,
2013-03-20 04:53:00,40.0,28.0,-100.00,ENE,67,3.0,4.0,63,0.00,,,0.00,0.000000,,2013-03-20 09:53:00,
2013-03-20 05:02:00,39.0,29.0,-100.00,ENE,61,2.0,4.0,67,0.00,,,0.00,0.000000,,2013-03-20 10:02:00,
2013-03-20 05:33:00,39.0,29.0,-100.00,ENE,61,2.0,4.0,67,0.00,,,0.00,0.000000,,2013-03-20 10:33:00,
2013-03-20 05:43:00,39.0,29.0,-100.00,ENE,61,2.0,4.0,67,0.00,,,0.00,0.000000,,2013-03-20 10:43:00,
2013-03-20 05:53:00,39.0,29.0,-100.00,ENE,61,2.0,4.0,67,0.00,,,0.00,0.000000,,2013-03-20 10:53:00,
2013-03-20 06:02:00,39.0,26.0,-100.00,NNE,32,2.0,4.0,60,0.00,,,0.00,0.000000,,2013-03-20 11:02:00,
2013-03-20 06:32:00,39.0,26.0,-100.00,NNE,32,2.0,4.0,60,0.00,,,0.00,0.000000,,2013-03-20 11:32:00,
2013-03-20 06:42:00,39.0,26.0,-100.00,NNE,32,2.0,4.0,60,0.00,,,0.00,0.000000,,2013-03-20 11:42:00,
2013-03-20 06:52:00,39.0,26.0,-100.00,NNE,32,2.0,4.0,60,0.00,,,0.00,0.000000,,2013-03-20 11:52:00,
2013-03-20 07:02:00,37.0,27.0,-100.00,NW,325,0.0,3.0,68,0.00,,,0.00,0.000000,,2013-03-20 12:02:00,
2013-03-20 07:33:00,37.0,27.0,-100.00,NW,325,0.0,3.0,68,0.00,,,0.00,0.000000,,2013-03-20 12:33:00,
2013-03-20 07:43:00,37.0,27.0,-100.00,NW,325,0.0,3.0,68,0.00,,,0.00,0.000000,,2013-03-20 12:43:00,
2013-03-20 07:52:00,37.0,27.0,-100.00,NW,325,0.0,3.0,68,0.00,,,0.00,0.000000,,2013-03-20 12:52:00,
2013-03-20 08:02:00,40.0,30.0,-100.00,West,281,2.0,4.0,68,0.00,,,0.00,21.000000,,2013-03-20 13:02:00,
2013-03-20 08:32:00,40.0,30.0,-100.00,West,281,2.0,4.0,68,0.00,,,0.00,21.000000,,2013-03-20 13:32:00,
2013-03-20 08:43:00,40.0,30.0,-100.00,West,281,2.0,4.0,68,0.00,,,0.00,21.000000,,2013-03-20 13:43:00,
2013-03-20 08:53:00,40.0,30.0,-100.00,West,281,2.0,4.0,68,0.00,,,0.00,21.000000,,2013-03-20 13:53:00,
2013-03-20 09:02:00,50.0,32.0,-100.00,NNE,25,3.0,5.0,49,0.00,,,0.00,227.000000,,2013-03-20 14:02:00,
2013-03-20 09:23:00,50.0,32.0,-100.00,NNE,25,3.0,5.0,49,0.00,,,0.00,227.000000,,2013-03-20 14:23:00,
2013-03-20 09:34:00,50.0,32.0,-100.00,NNE,25,3.0,5.0,49,0.00,,,0.00,227.000000,,2013-03-20 14:34:00,
2013-03-20 09:43:00,50.0,32.0,-100.00,NNE,25,3.0,5.0,49,0.00,,,0.00,227.000000,,2013-03-20 14:43:00,
2013-03-20 09:52:00,50.0,32.0,-100.00,NNE,25,3.0,5.0,49,0.00,,,0.00,227.000000,,2013-03-20 14:52:00,
2013-03-20 10:02:00,55.0,23.0,-100.00,NE,54,4.0,8.0,28,0.00,,,0.00,469.000000,,2013-03-20 15:02:00,
2013-03-20 10:33:00,55.0,23.0,-100.00,NE,54,4.0,8.0,28,0.00,,,0.00,469.000000,,2013-03-20 15:33:00,
2013-03-20 10:43:00,55.0,23.0,-100.00,NE,54,4.0,8.0,28,0.00,,,0.00,469.000000,,2013-03-20 15:43:00,
2013-03-20 10:53:00,55.0,23.0,-100.00,NE,54,4.0,8.0,28,0.00,,,0.00,469.000000,,2013-03-20 15:53:00,
2013-03-20 11:02:00,59.0,22.0,-100.00,NNE,29,3.0,6.0,24,0.00,,,0.00,693.000000,,2013-03-20 16:02:00,
2013-03-20 11:23:00,59.0,22.0,-100.00,NNE,29,3.0,6.0,24,0.00,,,0.00,693.000000,,2013-03-20 16:23:00,
2013-03-20 11:33:00,59.0,22.0,-100.00,NNE,29,3.0,6.0,24,0.00,,,0.00,693.000000,,2013-03-20 16:33:00,
2013-03-20 11:43:00,59.0,22.0,-100.00,NNE,29,3.0,6.0,24,0.00,,,0.00,693.000000,,2013-03-20 16:43:00,
2013-03-20 11:53:00,59.0,22.0,-100.00,NNE,29,3.0,6.0,24,0.00,,,0.00,693.000000,,2013-03-20 16:53:00,
2013-03-20 12:02:00,61.0,23.0,-100.00,WSW,246,5.0,11.0,23,0.00,,,0.00,874.000000,,2013-03-20 17:02:00,
2013-03-20 12:33:00,61.0,23.0,-100.00,WSW,246,5.0,11.0,23,0.00,,,0.00,874.000000,,2013-03-20 17:33:00,
2013-03-20 12:42:00,61.0,23.0,-100.00,WSW,246,5.0,11.0,23,0.00,,,0.00,874.000000,,2013-03-20 17:42:00,
2013-03-20 12:53:00,61.0,23.0,-100.00,WSW,246,5.0,11.0,23,0.00,,,0.00,874.000000,,2013-03-20 17:53:00,
2013-03-20 13:02:00,63.0,24.0,-100.00,NNW,346,5.0,16.0,22,0.00,,,0.00,981.000000,,2013-03-20 18:02:00,
2013-03-20 13:34:00,63.0,24.0,-100.00,NNW,346,5.0,16.0,22,0.00,,,0.00,981.000000,,2013-03-20 18:34:00,
2013-03-20 13:43:00,63.0,24.0,-100.00,NNW,346,5.0,16.0,22,0.00,,,0.00,981.000000,,2013-03-20 18:43:00,
2013-03-20 13:53:00,63.0,24.0,-100.00,NNW,346,5.0,16.0,22,0.00,,,0.00,981.000000,,2013-03-20 18:53:00,
2013-03-20 14:02:00,63.0,20.0,-100.00,NW,304,9.0,15.0,19,0.00,,,0.00,1017.000000,,2013-03-20 19:02:00,
2013-03-20 14:33:00,63.0,20.0,-100.00,NW,304,9.0,15.0,19,0.00,,,0.00,1017.000000,,2013-03-20 19:33:00,
2013-03-20 14:42:00,63.0,20.0,-100.00,NW,304,9.0,15.0,19,0.00,,,0.00,1017.000000,,2013-03-20 19:42:00,
2013-03-20 14:53:00,63.0,20.0,-100.00,NW,304,9.0,15.0,19,0.00,,,0.00,1017.000000,,2013-03-20 19:53:00,
2013-03-20 15:02:00,64.0,22.0,-100.00,WNW,291,8.0,17.0,20,0.00,,,0.00,974.000000,,2013-03-20 20:02:00,
2013-03-20 15:32:00,64.0,22.0,-100.00,WNW,291,8.0,17.0,20,0.00,,,0.00,974.000000,,2013-03-20 20:32:00,
2013-03-20 15:42:00,64.0,22.0,-100.00,WNW,291,8.0,17.0,20,0.00,,,0.00,974.000000,,2013-03-20 20:42:00,
2013-03-20 15:53:00,64.0,22.0,-100.00,WNW,291,8.0,17.0,20,0.00,,,0.00,974.000000,,2013-03-20 20:53:00,
2013-03-20 16:02:00,64.0,18.0,-100.00,NNW,344,9.0,16.0,17,0.00,,,0.00,854.000000,,2013-03-20 21:02:00,
2013-03-20 16:33:00,64.0,18.0,-100.00,NNW,344,9.0,16.0,17,0.00,,,0.00,854.000000,,2013-03-20 21:33:00,
2013-03-20 16:42:00,64.0,18.0,-100.00,NNW,344,9.0,16.0,17,0.00,,,0.00,854.000000,,2013-03-20 21:42:00,
2013-03-20 16:53:00,64.0,18.0,-100.00,NNW,344,9.0,16.0,17,0.00,,,0.00,854.000000,,2013-03-20 21:53:00,
2013-03-20 17:02:00,65.0,19.0,-100.00,North,2,6.0,15.0,17,0.00,,,0.00,657.000000,,2013-03-20 22:02:00,
2013-03-20 17:33:00,65.0,19.0,-100.00,North,2,6.0,15.0,17,0.00,,,0.00,657.000000,,2013-03-20 22:33:00,
2013-03-20 17:43:00,65.0,19.0,-100.00,North,2,6.0,15.0,17,0.00,,,0.00,657.000000,,2013-03-20 22:43:00,
2013-03-20 17:52:00,65.0,19.0,-100.00,North,2,6.0,15.0,17,0.00,,,0.00,657.000000,,2013-03-20 22:52:00,
2013-03-20 18:02:00,63.0,22.0,-100.00,NNW,339,6.0,15.0,21,0.00,,,0.00,417.000000,,2013-03-20 23:02:00,
2013-03-20 18:23:00,63.0,22.0,-100.00,NNW,339,6.0,15.0,21,0.00,,,0.00,417.000000,,2013-03-20 23:23:00,
2013-03-20 18:33:00,63.0,22.0,-100.00,NNW,339,6.0,15.0,21,0.00,,,0.00,417.000000,,2013-03-20 23:33:00,
2013-03-20 18:43:00,63.0,22.0,-100.00,NNW,339,6.0,15.0,21,0.00,,,0.00,417.000000,,2013-03-20 23:43:00,
2013-03-20 18:53:00,63.0,22.0,-100.00,NNW,339,6.0,15.0,21,0.00,,,0.00,417.000000,,2013-03-20 23:53:00,
2013-03-20 19:02:00,59.0,25.0,-100.00,North,349,3.0,11.0,27,0.00,,,0.00,158.000000,,2013-03-21 00:02:00,
2013-03-20 19:33:00,59.0,25.0,-100.00,North,349,3.0,11.0,27,0.00,,,0.00,158.000000,,2013-03-21 00:33:00,
2013-03-20 19:42:00,59.0,25.0,-100.00,North,349,3.0,11.0,27,0.00,,,0.00,158.000000,,2013-03-21 00:42:00,
2013-03-20 19:52:00,59.0,25.0,-100.00,North,349,3.0,11.0,27,0.00,,,0.00,158.000000,,2013-03-21 00:52:00,
2013-03-20 20:02:00,54.0,27.0,-100.00,NE,38,2.0,6.0,35,0.00,,,0.00,8.000000,,2013-03-21 01:02:00,
2013-03-20 20:33:00,54.0,27.0,-100.00,NE,38,2.0,6.0,35,0.00,,,0.00,8.000000,,2013-03-21 01:33:00,
2013-03-20 20:42:00,54.0,27.0,-100.00,NE,38,2.0,6.0,35,0.00,,,0.00,8.000000,,2013-03-21 01:42:00,
2013-03-20 20:53:00,54.0,27.0,-100.00,NE,38,2.0,6.0,35,0.00,,,0.00,8.000000,,2013-03-21 01:53:00,
2013-03-20 21:02:00,50.0,29.0,-100.00,North,354,2.0,4.0,44,0.00,,,0.00,0.000000,,2013-03-21 02:02:00,
2013-03-20 21:33:00,50.0,29.0,-100.00,North,354,2.0,4.0,44,0.00,,,0.00,0.000000,,2013-03-21 02:33:00,
2013-03-20 21:42:00,50.0,29.0,-100.00,North,354,2.0,4.0,44,0.00,,,0.00,0.000000,,2013-03-21 02:42:00,
2013-03-20 21:52:00,50.0,29.0,-100.00,North,354,2.0,4.0,44,0.00,,,0.00,0.000000,,2013-03-21 02:52:00,
2013-03-20 22:02:00,49.0,32.0,-100.00,NNE,24,2.0,4.0,51,0.00,,,0.00,0.000000,,2013-03-21 03:02:00,
2013-03-20 22:33:00,49.0,32.0,-100.00,NNE,24,2.0,4.0,51,0.00,,,0.00,0.000000,,2013-03-21 03:33:00,
2013-03-20 22:43:00,49.0,32.0,-100.00,NNE,24,2.0,4.0,51,0.00,,,0.00,0.000000,,2013-03-21 03:43:00,
2013-03-20 22:53:00,49.0,32.0,-100.00,NNE,24,2.0,4.0,51,0.00,,,0.00,0.000000,,2013-03-21 03:53:00,
2013-03-20 23:02:00,47.0,32.0,-100.00,ESE,115,2.0,5.0,55,0.00,,,0.00,0.000000,,2013-03-21 04:02:00,
2013-03-20 23:23:00,47.0,32.0,-100.00,ESE,115,2.0,5.0,55,0.00,,,0.00,0.000000,,2013-03-21 04:23:00,
2013-03-20 23:33:00,47.0,32.0,-100.00,ESE,115,2.0,5.0,55,0.00,,,0.00,0.000000,,2013-03-21 04:33:00,
2013-03-20 23:43:00,47.0,32.0,-100.00,ESE,115,2.0,5.0,55,0.00,,,0.00,0.000000,,2013-03-21 04:43:00,
2013-03-20 23:53:00,47.0,32.0,-100.00,ESE,115,2.0,5.0,55,0.00,,,0.00,0.000000,,2013-03-21 04:53:00,